contact:dominique.lefevre@mio.osupytheas.fr, maurice.libes@osupytheas.fr, didier.mallarino@osupytheas.fr
Project:EMSO http://www.emso-fr.org/EMSO-France
Depth: 2436.0 m
Title:EMSO Ligure Ouest : Data MII capteur AQUADOPP
Date,Latitude,Longitude,X_East,Y_North,Z_Up,Amplitude_X,Amplitude_Y,Amplitude_Z,Batterie,SoundSpeed,Heading,Pitch,Roll,Pressure,TIS,Speed,Direction
, degrees North, degrees East, m.s-1, m.s-1,m.s-1, 1, 1, 1, Volt, m.s-1, degree, degree, degree, dbar, degree_C, m.s-1, degree
2021-09-09T00:04:03,42.805,6.029,0.012,-0.051,0.012,102.0,101.0,101.0,13.3,1505.2,325.5,-0.8,1.8,2470.602,13.28,0.052,166.8
2021-09-09T00:07:03,42.805,6.029,0.0,-0.03,-0.014,101.0,101.0,101.0,13.3,1505.2,329.0,-0.8,1.8,2470.656,13.28,0.03,180.0
2021-09-09T00:10:03,42.805,6.029,0.021,-0.039,-0.01,101.0,101.0,101.0,13.4,1505.2,328.6,-0.8,1.8,2470.609,13.28,0.044,151.7
2021-09-09T00:13:03,42.805,6.029,0.005,-0.032,-0.032,103.0,103.0,100.0,13.4,1505.2,325.9,-0.8,1.8,2470.659,13.28,0.032,171.1
2021-09-09T00:16:03,42.805,6.029,-0.011,-0.04,-0.042,102.0,101.0,100.0,13.3,1505.2,326.4,-0.7,1.8,2470.592,13.28,0.041,195.4
2021-09-09T00:19:03,42.805,6.029,0.022,-0.026,-0.03,102.0,101.0,100.0,13.3,1505.2,325.4,-0.7,1.8,2470.617,13.28,0.034,139.8
2021-09-09T00:22:03,42.805,6.029,0.019,-0.04,-0.042,101.0,101.0,101.0,13.4,1505.2,328.5,-0.8,1.8,2470.592,13.28,0.044,154.6
2021-09-09T00:25:03,42.805,6.029,0.016,-0.025,0.004,101.0,101.0,101.0,13.4,1505.2,331.2,-0.8,1.8,2470.562,13.28,0.029,147.4
2021-09-09T00:28:03,42.805,6.029,0.015,-0.03,0.018,101.0,102.0,101.0,13.4,1505.2,329.3,-0.8,1.8,2470.568,13.28,0.033,153.4
2021-09-09T00:31:03,42.805,6.029,0.017,-0.023,-0.051,102.0,102.0,100.0,13.4,1505.2,327.6,-0.7,1.9,2470.561,13.28,0.028,143.5
2021-09-09T00:34:03,42.805,6.029,0.003,-0.042,-0.019,103.0,102.0,101.0,13.3,1505.2,328.2,-0.8,1.8,2470.602,13.28,0.042,175.9
2021-09-09T00:37:03,42.805,6.029,-0.006,-0.03,-0.021,101.0,101.0,101.0,13.4,1505.2,331.6,-0.7,1.8,2470.583,13.28,0.03,191.3
2021-09-09T00:40:03,42.805,6.029,0.008,-0.023,-0.014,102.0,101.0,100.0,13.3,1505.2,329.1,-0.8,1.8,2470.6,13.28,0.024,160.8
2021-09-09T00:43:03,42.805,6.029,0.007,-0.02,-0.01,102.0,102.0,101.0,13.4,1505.2,327.1,-0.8,1.8,2470.591,13.28,0.021,160.7
2021-09-09T00:46:03,42.805,6.029,0.0,-0.012,-0.021,102.0,102.0,101.0,13.4,1505.2,328.4,-0.8,1.9,2470.622,13.28,0.012,180.0
2021-09-09T00:49:03,42.805,6.029,0.011,-0.031,0.001,101.0,102.0,102.0,13.4,1505.2,328.4,-0.7,1.8,2470.556,13.28,0.032,160.5
2021-09-09T00:52:03,42.805,6.029,0.016,-0.048,-0.035,102.0,102.0,101.0,13.4,1505.2,328.1,-0.8,1.9,2470.593,13.28,0.05,161.6
2021-09-09T00:55:03,42.805,6.029,-0.003,-0.055,-0.053,101.0,100.0,102.0,13.4,1505.2,329.7,-0.7,1.8,2470.539,13.28,0.055,183.1
2021-09-09T00:58:03,42.805,6.029,0.014,-0.037,-0.008,101.0,100.0,102.0,13.4,1505.2,329.0,-0.7,1.8,2470.571,13.28,0.039,159.3
2021-09-09T01:04:03,42.805,6.029,0.0,-0.031,-0.039,102.0,103.0,101.0,13.4,1505.2,329.8,-0.7,1.8,2470.593,13.28,0.03,180.0
2021-09-09T01:07:03,42.805,6.029,0.0,-0.041,-0.065,103.0,102.0,102.0,13.4,1505.2,329.3,-0.8,1.8,2470.591,13.28,0.041,180.0
2021-09-09T01:10:03,42.805,6.029,0.049,-0.058,-0.06,103.0,104.0,102.0,13.3,1505.2,328.7,-0.8,1.8,2470.605,13.28,0.075,139.8
2021-09-09T01:13:03,42.805,6.029,0.006,-0.031,-0.031,104.0,101.0,100.0,13.3,1505.2,329.8,-0.7,1.8,2470.529,13.28,0.031,169.0
2021-09-09T01:16:03,42.805,6.029,0.002,-0.039,0.004,102.0,102.0,101.0,13.3,1505.2,328.7,-0.7,1.8,2470.577,13.28,0.039,177.1
2021-09-09T01:19:03,42.805,6.029,-0.006,-0.038,-0.038,101.0,101.0,102.0,13.3,1505.2,327.4,-0.8,1.8,2470.587,13.28,0.038,189.0
2021-09-09T01:22:03,42.805,6.029,-0.02,-0.034,-0.022,102.0,102.0,100.0,13.4,1505.2,328.0,-0.7,1.8,2470.572,13.28,0.039,210.5
2021-09-09T01:25:03,42.805,6.029,0.011,-0.016,-0.006,102.0,101.0,101.0,13.4,1505.2,327.7,-0.8,1.8,2470.555,13.28,0.019,145.5
2021-09-09T01:28:03,42.805,6.029,-0.009,-0.059,-0.031,101.0,102.0,101.0,13.4,1505.2,328.5,-0.7,1.8,2470.548,13.28,0.059,188.7
2021-09-09T01:31:03,42.805,6.029,-0.006,-0.036,-0.027,100.0,103.0,101.0,13.4,1505.2,328.3,-0.7,1.8,2470.545,13.28,0.036,189.5
2021-09-09T01:34:03,42.805,6.029,0.013,-0.039,-0.045,102.0,101.0,101.0,13.3,1505.2,326.3,-0.7,1.8,2470.542,13.28,0.041,161.6
2021-09-09T01:37:03,42.805,6.029,0.01,-0.04,0.024,101.0,102.0,101.0,13.4,1505.2,326.7,-0.8,1.8,2470.551,13.28,0.041,166.0
2021-09-09T01:40:03,42.805,6.029,0.024,-0.016,-0.005,102.0,102.0,100.0,13.3,1505.2,327.5,-0.8,1.9,2470.573,13.28,0.028,123.7
2021-09-09T01:43:03,42.805,6.029,0.005,-0.033,-0.027,101.0,103.0,100.0,13.4,1505.2,329.3,-0.7,1.8,2470.567,13.28,0.033,171.4
2021-09-09T01:46:03,42.805,6.029,-0.005,-0.048,-0.021,102.0,102.0,101.0,13.4,1505.2,329.7,-0.8,1.8,2470.555,13.28,0.048,185.9
2021-09-09T01:49:03,42.805,6.029,-0.007,-0.02,0.006,101.0,102.0,100.0,13.4,1505.2,326.3,-0.7,1.9,2470.538,13.28,0.021,199.3
2021-09-09T01:52:03,42.805,6.029,-0.013,-0.034,-0.021,102.0,100.0,100.0,13.4,1505.2,329.6,-0.8,1.8,2470.564,13.28,0.036,200.9
2021-09-09T01:55:03,42.805,6.029,-0.005,-0.014,-0.014,101.0,103.0,100.0,13.4,1505.2,325.7,-0.8,1.8,2470.554,13.28,0.014,199.6
2021-09-09T01:58:03,42.805,6.029,0.007,-0.025,-0.019,102.0,101.0,100.0,13.3,1505.2,328.9,-0.8,1.8,2470.549,13.28,0.025,164.4
2021-09-09T02:04:03,42.805,6.029,-0.011,-0.03,-0.011,102.0,101.0,101.0,13.4,1505.2,331.1,-0.8,1.8,2470.56,13.28,0.031,200.1
2021-09-09T02:07:03,42.805,6.029,0.006,-0.034,-0.03,101.0,102.0,101.0,13.4,1505.2,326.7,-0.8,1.8,2470.566,13.28,0.034,170.0
2021-09-09T02:10:03,42.805,6.029,-0.013,-0.026,-0.027,103.0,101.0,100.0,13.3,1505.2,326.9,-0.7,1.8,2470.551,13.28,0.029,206.6
2021-09-09T02:13:03,42.805,6.029,-0.011,-0.021,-0.013,101.0,102.0,101.0,13.4,1505.2,331.4,-0.7,1.8,2470.598,13.28,0.023,207.6
2021-09-09T02:16:03,42.805,6.029,0.006,-0.021,0.0,102.0,101.0,101.0,13.4,1505.2,331.4,-0.8,1.8,2470.543,13.28,0.021,164.1
2021-09-09T02:19:03,42.805,6.029,-0.001,-0.056,-0.038,102.0,100.0,100.0,13.4,1505.2,329.2,-0.7,1.9,2470.546,13.28,0.056,181.0
2021-09-09T02:22:03,42.805,6.029,-0.006,-0.029,0.021,102.0,102.0,101.0,13.4,1505.2,326.2,-0.7,1.8,2470.549,13.28,0.029,191.7
2021-09-09T02:25:03,42.805,6.029,0.01,-0.036,-0.008,103.0,100.0,100.0,13.3,1505.2,328.1,-0.7,1.8,2470.524,13.28,0.037,164.5
2021-09-09T02:28:03,42.805,6.029,-0.012,-0.027,-0.026,101.0,101.0,101.0,13.4,1505.2,326.7,-0.8,1.8,2470.499,13.28,0.029,204.0
2021-09-09T02:31:03,42.805,6.029,0.004,-0.029,-0.002,102.0,101.0,101.0,13.4,1505.2,330.7,-0.8,1.9,2470.537,13.28,0.029,172.2
2021-09-09T02:34:03,42.805,6.029,0.001,-0.028,-0.003,103.0,101.0,100.0,13.4,1505.2,327.9,-0.8,1.8,2470.531,13.28,0.028,178.0
2021-09-09T02:37:03,42.805,6.029,0.003,-0.035,-0.02,102.0,102.0,101.0,13.3,1505.2,328.8,-0.7,1.8,2470.539,13.28,0.035,175.1
2021-09-09T02:40:03,42.805,6.029,-0.006,-0.026,-0.036,102.0,101.0,102.0,13.3,1505.2,328.9,-0.8,1.9,2470.54,13.28,0.026,193.0
2021-09-09T02:43:03,42.805,6.029,-0.006,-0.041,-0.027,103.0,101.0,101.0,13.4,1505.2,329.3,-0.7,1.8,2470.537,13.28,0.041,188.3
2021-09-09T02:46:03,42.805,6.029,0.012,-0.009,-0.024,101.0,102.0,101.0,13.3,1505.2,331.1,-0.7,1.9,2470.53,13.28,0.015,126.9
2021-09-09T02:49:03,42.805,6.029,0.015,-0.02,-0.015,101.0,101.0,101.0,13.4,1505.2,328.4,-0.7,1.8,2470.562,13.28,0.025,143.1
2021-09-09T02:52:03,42.805,6.029,0.001,-0.018,-0.021,102.0,101.0,101.0,13.4,1505.2,325.7,-0.8,1.8,2470.493,13.28,0.018,176.8
2021-09-09T02:55:03,42.805,6.029,0.017,-0.025,0.0,101.0,103.0,100.0,13.4,1505.2,327.5,-0.8,1.9,2470.556,13.28,0.03,145.8
2021-09-09T02:58:03,42.805,6.029,0.007,-0.031,-0.005,103.0,101.0,101.0,13.3,1505.2,325.4,-0.7,1.9,2470.511,13.28,0.031,167.3
2021-09-09T03:04:03,42.805,6.029,-0.014,-0.023,-0.011,102.0,102.0,101.0,13.4,1505.2,331.6,-0.7,1.9,2470.528,13.28,0.026,211.3
2021-09-09T03:07:03,42.805,6.029,-0.006,-0.032,-0.017,101.0,103.0,101.0,13.4,1505.2,330.2,-0.7,1.9,2470.563,13.28,0.032,190.6
2021-09-09T03:10:03,42.805,6.029,-0.018,-0.02,-0.032,103.0,102.0,101.0,13.4,1505.2,325.6,-0.7,1.8,2470.54,13.28,0.026,222.0
2021-09-09T03:13:03,42.805,6.029,-0.02,-0.034,-0.037,102.0,103.0,101.0,13.3,1505.2,329.3,-0.8,1.8,2470.534,13.28,0.039,210.5
2021-09-09T03:16:03,42.805,6.029,-0.017,-0.031,-0.046,102.0,102.0,102.0,13.4,1505.2,328.4,-0.8,1.8,2470.57,13.28,0.035,208.7
2021-09-09T03:19:03,42.805,6.029,-0.035,-0.043,-0.048,101.0,102.0,101.0,13.4,1505.2,329.2,-0.7,1.8,2470.567,13.28,0.055,219.1
2021-09-09T03:22:03,42.805,6.029,-0.002,-0.016,-0.003,102.0,103.0,101.0,13.4,1505.2,330.0,-0.7,1.8,2470.523,13.28,0.016,187.1
2021-09-09T03:25:03,42.805,6.029,0.008,-0.028,-0.043,102.0,102.0,101.0,13.4,1505.2,329.1,-0.7,1.8,2470.512,13.28,0.029,164.1
2021-09-09T03:28:03,42.805,6.029,0.022,-0.018,-0.004,102.0,102.0,99.0,13.4,1505.2,325.5,-0.7,1.8,2470.536,13.28,0.028,129.3
2021-09-09T03:31:03,42.805,6.029,-0.008,-0.04,-0.002,103.0,101.0,101.0,13.3,1505.2,330.7,-0.7,1.8,2470.531,13.28,0.04,191.3
2021-09-09T03:34:03,42.805,6.029,-0.005,-0.017,-0.041,102.0,102.0,101.0,13.4,1505.2,326.0,-0.7,1.8,2470.513,13.28,0.017,196.4
2021-09-09T03:37:03,42.805,6.029,-0.01,-0.03,0.015,101.0,103.0,100.0,13.4,1505.2,326.8,-0.7,1.8,2470.515,13.28,0.031,198.4
2021-09-09T03:40:03,42.805,6.029,-0.002,-0.034,-0.022,101.0,103.0,101.0,13.3,1505.2,327.2,-0.7,1.8,2470.504,13.28,0.034,183.4
2021-09-09T03:43:03,42.805,6.029,-0.001,-0.03,-0.053,102.0,102.0,101.0,13.4,1505.2,328.4,-0.7,1.8,2470.497,13.28,0.03,181.9
2021-09-09T03:46:03,42.805,6.029,-0.011,-0.014,-0.024,102.0,101.0,101.0,13.4,1505.2,331.1,-0.7,1.8,2470.512,13.28,0.017,218.2
2021-09-09T03:49:03,42.805,6.029,-0.012,-0.024,-0.028,102.0,102.0,100.0,13.4,1505.2,330.5,-0.8,1.8,2470.522,13.28,0.026,206.6
2021-09-09T03:52:03,42.805,6.029,-0.014,-0.028,-0.056,103.0,102.0,100.0,13.3,1505.2,329.4,-0.7,1.8,2470.505,13.28,0.031,206.6
2021-09-09T03:55:03,42.805,6.029,-0.027,-0.006,-0.055,103.0,102.0,101.0,13.3,1505.2,331.1,-0.7,1.8,2470.53,13.28,0.027,257.5
2021-09-09T03:58:03,42.805,6.029,-0.025,-0.006,-0.027,103.0,102.0,101.0,13.3,1505.2,329.3,-0.8,1.8,2470.523,13.28,0.025,256.5
2021-09-09T04:04:03,42.805,6.029,-0.02,-0.026,-0.044,101.0,102.0,101.0,13.3,1505.2,328.9,-0.8,1.8,2470.545,13.28,0.032,217.6
2021-09-09T04:07:03,42.805,6.029,0.014,-0.016,0.014,102.0,102.0,101.0,13.4,1505.2,325.7,-0.7,1.9,2470.538,13.28,0.021,138.8
2021-09-09T04:10:03,42.805,6.029,-0.001,-0.028,-0.032,101.0,102.0,101.0,13.3,1505.2,329.9,-0.8,1.8,2470.551,13.28,0.028,182.0
2021-09-09T04:13:03,42.805,6.029,-0.003,-0.013,-0.016,101.0,102.0,100.0,13.4,1505.2,330.4,-0.7,1.8,2470.556,13.28,0.013,193.0
2021-09-09T04:16:03,42.805,6.029,-0.021,-0.024,-0.024,102.0,102.0,100.0,13.4,1505.2,326.1,-0.8,1.8,2470.547,13.28,0.031,221.2
2021-09-09T04:19:03,42.805,6.029,-0.004,-0.028,-0.03,104.0,101.0,100.0,13.4,1505.2,327.8,-0.7,1.8,2470.536,13.28,0.028,188.1
2021-09-09T04:22:03,42.805,6.029,-0.013,-0.005,-0.024,102.0,101.0,101.0,13.4,1505.2,328.8,-0.7,1.8,2470.592,13.28,0.013,249.0
2021-09-09T04:25:03,42.805,6.029,-0.006,-0.031,-0.05,102.0,101.0,100.0,13.4,1505.2,326.1,-0.8,1.8,2470.56,13.28,0.031,191.0
2021-09-09T04:28:03,42.805,6.029,0.004,-0.015,-0.003,101.0,101.0,101.0,13.4,1505.2,327.5,-0.8,1.8,2470.552,13.28,0.015,165.1
2021-09-09T04:31:03,42.805,6.029,-0.021,0.009,-0.014,102.0,102.0,101.0,13.4,1505.2,330.8,-0.7,1.8,2470.539,13.28,0.022,293.2
2021-09-09T04:34:03,42.805,6.029,0.0,-0.011,-0.027,102.0,102.0,101.0,13.3,1505.2,327.9,-0.7,1.8,2470.542,13.28,0.011,180.0
2021-09-09T04:37:03,42.805,6.029,-0.037,0.001,-0.003,102.0,102.0,100.0,13.4,1505.2,327.1,-0.7,1.8,2470.55,13.28,0.037,271.5
2021-09-09T04:40:03,42.805,6.029,-0.019,-0.021,-0.023,102.0,101.0,100.0,13.4,1505.2,327.2,-0.7,1.8,2470.564,13.28,0.028,222.1
2021-09-09T04:43:03,42.805,6.029,-0.013,0.008,0.037,102.0,102.0,100.0,13.3,1505.2,327.4,-0.7,1.8,2470.543,13.28,0.015,301.6
2021-09-09T04:46:03,42.805,6.029,-0.005,-0.023,-0.014,102.0,102.0,101.0,13.4,1505.2,327.8,-0.7,1.8,2470.552,13.28,0.023,192.3
2021-09-09T04:49:03,42.805,6.029,-0.023,-0.015,-0.008,102.0,99.0,101.0,13.3,1505.2,326.3,-0.8,1.8,2470.539,13.28,0.027,236.9
2021-09-09T04:52:03,42.805,6.029,-0.005,-0.019,-0.009,103.0,100.0,101.0,13.4,1505.2,330.0,-0.8,1.9,2470.574,13.28,0.019,194.7
2021-09-09T04:55:03,42.805,6.029,0.002,-0.004,-0.009,103.0,101.0,101.0,13.3,1505.2,327.4,-0.7,1.8,2470.543,13.28,0.004,153.4
2021-09-09T04:58:03,42.805,6.029,-0.012,-0.005,-0.034,102.0,102.0,101.0,13.3,1505.2,329.1,-0.8,1.8,2470.586,13.28,0.013,247.4
2021-09-09T05:01:03,42.805,6.029,0.002,0.0,-0.017,101.0,102.0,101.0,13.4,1505.2,329.2,-0.8,1.8,2470.622,13.28,0.002,90.0
2021-09-09T05:04:03,42.805,6.029,0.001,-0.019,-0.012,102.0,102.0,101.0,13.4,1505.2,325.6,-0.8,1.8,2470.555,13.28,0.019,177.0
2021-09-09T05:07:03,42.805,6.029,-0.006,-0.035,-0.041,101.0,101.0,101.0,13.3,1505.2,330.9,-0.7,1.8,2470.552,13.28,0.035,189.7
2021-09-09T05:10:03,42.805,6.029,-0.012,-0.007,-0.036,101.0,101.0,101.0,13.3,1505.2,330.1,-0.7,1.8,2470.591,13.28,0.013,239.7
2021-09-09T05:13:03,42.805,6.029,-0.003,-0.005,-0.007,102.0,102.0,100.0,13.3,1505.2,329.0,-0.8,1.8,2470.552,13.28,0.005,211.0
2021-09-09T05:16:03,42.805,6.029,-0.009,-0.005,-0.001,103.0,103.0,100.0,13.3,1505.2,327.8,-0.7,1.8,2470.593,13.28,0.01,240.9
2021-09-09T05:19:03,42.805,6.029,-0.023,-0.017,-0.038,103.0,99.0,100.0,13.4,1505.2,328.0,-0.7,1.8,2470.563,13.28,0.028,233.5
2021-09-09T05:22:03,42.805,6.029,-0.014,-0.022,-0.011,102.0,102.0,101.0,13.4,1505.2,326.9,-0.8,1.8,2470.594,13.28,0.026,212.5
2021-09-09T05:25:03,42.805,6.029,-0.008,-0.014,-0.028,101.0,102.0,101.0,13.3,1505.2,327.8,-0.7,1.8,2470.626,13.28,0.016,209.7
2021-09-09T05:28:03,42.805,6.029,0.005,0.004,0.031,101.0,101.0,101.0,13.4,1505.2,330.0,-0.8,1.8,2470.614,13.28,0.006,51.3
2021-09-09T05:31:03,42.805,6.029,-0.015,-0.009,-0.027,103.0,100.0,100.0,13.3,1505.2,329.6,-0.7,1.8,2470.595,13.28,0.017,239.0
2021-09-09T05:34:03,42.805,6.029,-0.019,-0.004,-0.02,104.0,100.0,100.0,13.4,1505.2,329.6,-0.8,1.8,2470.595,13.28,0.019,258.1
2021-09-09T05:37:03,42.805,6.029,-0.003,-0.002,0.0,102.0,101.0,100.0,13.4,1505.2,327.9,-0.7,1.8,2470.571,13.28,0.003,236.3
2021-09-09T05:40:03,42.805,6.029,0.001,-0.001,-0.009,104.0,101.0,100.0,13.4,1505.2,325.3,-0.8,1.8,2470.609,13.28,0.001,135.0
2021-09-09T05:43:03,42.805,6.029,0.012,-0.002,0.014,101.0,102.0,101.0,13.4,1505.2,329.2,-0.7,1.8,2470.593,13.28,0.012,99.5
2021-09-09T05:46:03,42.805,6.029,0.013,-0.02,-0.011,102.0,102.0,101.0,13.4,1505.2,329.8,-0.8,1.8,2470.578,13.28,0.023,147.0
2021-09-09T05:49:03,42.805,6.029,-0.001,-0.031,0.0,103.0,102.0,101.0,13.4,1505.2,327.3,-0.7,1.9,2470.617,13.28,0.031,181.8
2021-09-09T05:52:03,42.805,6.029,-0.003,-0.021,-0.008,101.0,101.0,101.0,13.3,1505.2,329.6,-0.7,1.8,2470.655,13.28,0.021,188.1
2021-09-09T05:55:03,42.805,6.029,0.003,-0.01,-0.027,101.0,102.0,101.0,13.4,1505.2,325.7,-0.8,1.8,2470.656,13.28,0.01,163.3
2021-09-09T05:58:03,42.805,6.029,-0.013,0.017,0.009,102.0,102.0,100.0,13.4,1505.2,325.7,-0.7,1.9,2470.612,13.28,0.021,322.6
2021-09-09T06:04:03,42.805,6.029,-0.011,-0.013,-0.019,102.0,101.0,101.0,13.4,1505.2,329.4,-0.7,1.8,2470.647,13.28,0.017,220.2
2021-09-09T06:07:03,42.805,6.029,-0.014,-0.015,-0.015,102.0,101.0,101.0,13.3,1505.2,326.7,-0.7,1.8,2470.656,13.28,0.02,223.0
2021-09-09T06:10:03,42.805,6.029,-0.012,-0.014,-0.021,102.0,102.0,101.0,13.3,1505.2,328.0,-0.7,1.8,2470.662,13.28,0.018,220.6
2021-09-09T06:13:03,42.805,6.029,-0.009,-0.013,-0.033,101.0,102.0,100.0,13.3,1505.2,325.0,-0.7,1.8,2470.645,13.28,0.015,214.7
2021-09-09T06:16:03,42.805,6.029,-0.006,-0.002,0.002,103.0,102.0,100.0,13.4,1505.2,325.1,-0.7,1.8,2470.656,13.28,0.006,251.6
2021-09-09T06:19:03,42.805,6.029,-0.006,0.001,0.01,101.0,101.0,101.0,13.4,1505.2,327.6,-0.8,1.8,2470.681,13.28,0.006,279.5
2021-09-09T06:22:03,42.805,6.029,0.005,-0.013,0.015,101.0,103.0,100.0,13.3,1505.2,329.6,-0.7,1.8,2470.685,13.28,0.013,159.0
2021-09-09T06:25:03,42.805,6.029,-0.017,-0.012,-0.041,102.0,101.0,100.0,13.3,1505.2,329.2,-0.8,1.8,2470.651,13.28,0.02,234.8
2021-09-09T06:28:03,42.805,6.029,0.028,-0.015,-0.009,101.0,102.0,101.0,13.4,1505.2,328.5,-0.7,1.8,2470.707,13.28,0.031,118.2
2021-09-09T06:31:03,42.805,6.029,0.007,-0.011,-0.021,102.0,102.0,100.0,13.4,1505.2,326.9,-0.8,1.8,2470.658,13.28,0.013,147.5
2021-09-09T06:34:03,42.805,6.029,-0.013,-0.011,-0.014,102.0,101.0,101.0,13.4,1505.2,325.7,-0.7,1.8,2470.682,13.28,0.017,229.8
2021-09-09T06:37:03,42.805,6.029,0.01,-0.006,-0.022,101.0,100.0,101.0,13.3,1505.2,330.6,-0.7,1.8,2470.662,13.28,0.011,121.0
2021-09-09T06:40:03,42.805,6.029,0.004,-0.006,-0.007,101.0,101.0,101.0,13.4,1505.2,327.9,-0.8,1.8,2470.666,13.28,0.007,146.3
2021-09-09T06:43:03,42.805,6.029,0.009,-0.034,-0.025,103.0,101.0,101.0,13.4,1505.2,325.4,-0.7,1.8,2470.659,13.28,0.035,165.2
2021-09-09T06:46:03,42.805,6.029,-0.007,-0.001,0.007,102.0,102.0,100.0,13.4,1505.2,327.4,-0.7,1.8,2470.659,13.28,0.007,261.9
2021-09-09T06:49:03,42.805,6.029,0.017,-0.001,0.002,101.0,104.0,100.0,13.4,1505.2,329.6,-0.8,1.8,2470.675,13.28,0.017,93.4
2021-09-09T06:52:03,42.805,6.029,0.007,-0.005,-0.005,102.0,102.0,100.0,13.4,1505.2,327.1,-0.8,1.8,2470.703,13.28,0.008,125.5
2021-09-09T06:55:03,42.805,6.029,0.009,-0.019,-0.001,103.0,103.0,101.0,13.3,1505.2,328.0,-0.7,1.8,2470.656,13.28,0.021,154.7
2021-09-09T06:58:03,42.805,6.029,0.007,-0.015,-0.022,102.0,101.0,101.0,13.3,1505.2,327.8,-0.8,1.8,2470.668,13.28,0.016,155.0
2021-09-09T07:04:03,42.805,6.029,0.0,-0.007,-0.005,100.0,102.0,100.0,13.3,1505.2,327.1,-0.8,1.8,2470.732,13.28,0.007,180.0
2021-09-09T07:07:03,42.805,6.029,0.028,0.005,0.016,101.0,101.0,101.0,13.3,1505.2,325.1,-0.7,1.8,2470.692,13.28,0.028,79.9
2021-09-09T07:10:03,42.805,6.029,0.01,-0.021,-0.026,102.0,102.0,100.0,13.4,1505.2,330.6,-0.8,1.8,2470.699,13.28,0.023,154.5
2021-09-09T07:13:03,42.805,6.029,-0.004,-0.031,-0.026,103.0,102.0,100.0,13.4,1505.2,327.2,-0.7,1.8,2470.696,13.28,0.031,187.3
2021-09-09T07:16:03,42.805,6.029,0.014,-0.033,-0.018,101.0,101.0,100.0,13.3,1505.2,325.8,-0.7,1.8,2470.664,13.28,0.035,157.0
2021-09-09T07:19:03,42.805,6.029,0.018,-0.013,0.0,101.0,101.0,101.0,13.3,1505.2,326.6,-0.8,1.8,2470.703,13.28,0.022,125.8
2021-09-09T07:22:03,42.805,6.029,-0.003,-0.026,-0.027,102.0,101.0,101.0,13.4,1505.2,329.1,-0.8,1.8,2470.709,13.28,0.026,186.6
2021-09-09T07:25:03,42.805,6.029,0.015,-0.009,0.001,100.0,101.0,101.0,13.3,1505.2,326.8,-0.8,1.8,2470.714,13.28,0.017,121.0
2021-09-09T07:28:03,42.805,6.029,0.013,-0.038,-0.055,103.0,101.0,101.0,13.3,1505.2,329.6,-0.7,1.8,2470.698,13.28,0.04,161.1
2021-09-09T07:31:03,42.805,6.029,0.019,-0.023,-0.016,103.0,101.0,100.0,13.4,1505.2,329.2,-0.7,1.8,2470.701,13.28,0.029,140.4
2021-09-09T07:34:03,42.805,6.029,0.006,-0.016,-0.012,102.0,101.0,101.0,13.3,1505.2,329.8,-0.8,1.8,2470.676,13.28,0.017,159.4
2021-09-09T07:37:03,42.805,6.029,-0.006,-0.051,-0.046,101.0,103.0,101.0,13.4,1505.2,325.2,-0.7,1.8,2470.739,13.28,0.051,186.7
2021-09-09T07:40:03,42.805,6.029,0.022,-0.016,0.004,102.0,102.0,100.0,13.4,1505.2,329.8,-0.8,1.8,2470.706,13.28,0.027,126.0
2021-09-09T07:43:03,42.805,6.029,0.004,-0.006,-0.001,103.0,102.0,100.0,13.3,1505.2,327.7,-0.7,1.8,2470.691,13.28,0.007,146.3
2021-09-09T07:46:03,42.805,6.029,0.009,-0.018,-0.05,101.0,101.0,101.0,13.4,1505.2,325.8,-0.8,1.8,2470.72,13.28,0.02,153.4
2021-09-09T07:49:03,42.805,6.029,0.009,-0.02,-0.027,102.0,102.0,100.0,13.4,1505.2,330.6,-0.8,1.8,2470.713,13.28,0.021,155.8
2021-09-09T07:52:03,42.805,6.029,-0.002,-0.01,-0.025,102.0,102.0,101.0,13.4,1505.2,328.9,-0.8,1.8,2470.671,13.28,0.01,191.3
2021-09-09T07:55:03,42.805,6.029,0.028,-0.027,-0.021,101.0,102.0,101.0,13.3,1505.2,328.2,-0.8,1.8,2470.707,13.28,0.038,134.0
2021-09-09T07:58:03,42.805,6.029,0.002,-0.004,0.012,102.0,102.0,101.0,13.4,1505.2,325.2,-0.7,1.8,2470.693,13.28,0.004,153.4
2021-09-09T08:04:03,42.805,6.029,0.045,-0.007,0.027,103.0,101.0,101.0,13.4,1505.2,327.1,-0.8,1.9,2470.743,13.28,0.045,98.8
2021-09-09T08:07:03,42.805,6.029,-0.027,-0.02,0.01,102.0,102.0,101.0,13.4,1505.2,327.7,-0.8,1.8,2470.724,13.28,0.033,233.5
2021-09-09T08:10:03,42.805,6.029,0.022,-0.008,-0.012,103.0,102.0,101.0,13.4,1505.2,328.7,-0.8,1.8,2470.73,13.28,0.023,110.0
2021-09-09T08:13:03,42.805,6.029,-0.001,-0.018,-0.052,101.0,102.0,101.0,13.3,1505.2,329.6,-0.8,1.8,2470.715,13.28,0.018,183.2
2021-09-09T08:16:03,42.805,6.029,0.015,-0.004,-0.017,104.0,103.0,101.0,13.3,1505.2,327.2,-0.7,1.8,2470.746,13.28,0.015,104.9
2021-09-09T08:19:03,42.805,6.029,0.0,-0.014,-0.006,102.0,101.0,101.0,13.4,1505.2,325.6,-0.7,1.8,2470.727,13.28,0.014,180.0
2021-09-09T08:22:03,42.805,6.029,0.023,-0.012,0.022,101.0,102.0,101.0,13.4,1505.2,327.2,-0.7,1.8,2470.735,13.28,0.025,117.6
2021-09-09T08:25:03,42.805,6.029,0.022,-0.013,-0.007,101.0,101.0,100.0,13.4,1505.2,327.9,-0.7,1.8,2470.736,13.28,0.025,120.6
2021-09-09T08:28:03,42.805,6.029,0.026,-0.017,0.02,101.0,101.0,100.0,13.4,1505.2,330.5,-0.8,1.8,2470.716,13.28,0.031,123.2
2021-09-09T08:31:03,42.805,6.029,0.01,-0.014,-0.016,101.0,101.0,101.0,13.3,1505.2,329.4,-0.7,1.8,2470.71,13.28,0.017,144.5
2021-09-09T08:34:03,42.805,6.029,0.009,-0.034,-0.01,102.0,102.0,101.0,13.4,1505.2,325.2,-0.7,1.8,2470.721,13.28,0.035,165.2
2021-09-09T08:37:03,42.805,6.029,-0.001,-0.013,0.001,101.0,101.0,102.0,13.4,1505.2,329.5,-0.7,1.8,2470.725,13.28,0.013,184.4
2021-09-09T08:40:03,42.805,6.029,0.004,-0.012,-0.012,102.0,101.0,100.0,13.4,1505.2,328.2,-0.7,1.8,2470.711,13.28,0.012,161.6
2021-09-09T08:43:03,42.805,6.029,0.0,-0.028,-0.019,102.0,101.0,101.0,13.4,1505.2,327.2,-0.8,1.8,2470.729,13.28,0.028,180.0
2021-09-09T08:46:03,42.805,6.029,0.006,-0.036,-0.008,103.0,102.0,100.0,13.3,1505.2,329.3,-0.7,1.8,2470.72,13.28,0.036,170.5
2021-09-09T08:49:03,42.805,6.029,0.008,-0.008,-0.013,102.0,103.0,100.0,13.4,1505.2,324.9,-0.8,1.8,2470.733,13.28,0.011,135.0
2021-09-09T08:52:03,42.805,6.029,0.032,-0.022,-0.009,102.0,102.0,100.0,13.3,1505.2,331.4,-0.7,1.8,2470.731,13.28,0.038,124.5
2021-09-09T08:55:03,42.805,6.029,0.005,-0.037,-0.027,107.0,102.0,101.0,13.4,1505.2,328.7,-0.8,1.8,2470.729,13.28,0.037,172.3
2021-09-09T08:58:03,42.805,6.029,0.024,-0.019,-0.014,102.0,102.0,101.0,13.4,1505.2,325.8,-0.7,1.8,2470.74,13.28,0.03,128.4
2021-09-09T09:04:03,42.805,6.029,0.0,-0.01,-0.002,103.0,102.0,101.0,13.3,1505.2,327.5,-0.8,1.8,2470.754,13.28,0.01,180.0
2021-09-09T09:07:03,42.805,6.029,0.026,-0.02,-0.01,102.0,102.0,101.0,13.4,1505.2,326.1,-0.7,1.8,2470.766,13.28,0.032,127.6
2021-09-09T09:10:03,42.805,6.029,0.019,-0.021,-0.018,103.0,101.0,101.0,13.3,1505.2,327.0,-0.8,1.8,2470.734,13.28,0.028,137.9
2021-09-09T09:13:03,42.805,6.029,0.009,-0.011,-0.014,102.0,102.0,101.0,13.4,1505.2,330.5,-0.7,1.8,2470.735,13.28,0.014,140.7
2021-09-09T09:16:03,42.805,6.029,0.018,-0.027,-0.007,102.0,101.0,100.0,13.4,1505.2,328.9,-0.7,1.8,2470.702,13.28,0.032,146.3
2021-09-09T09:19:03,42.805,6.029,0.027,-0.018,-0.002,102.0,102.0,101.0,13.4,1505.2,330.2,-0.7,1.8,2470.765,13.28,0.032,123.7
2021-09-09T09:22:03,42.805,6.029,0.01,-0.027,0.002,102.0,102.0,101.0,13.4,1505.2,326.7,-0.8,1.9,2470.735,13.28,0.028,159.7
2021-09-09T09:25:03,42.805,6.029,0.011,-0.022,-0.014,101.0,103.0,102.0,13.4,1505.2,329.6,-0.7,1.9,2470.721,13.28,0.024,153.4
2021-09-09T09:28:03,42.805,6.029,0.015,-0.029,0.003,103.0,102.0,100.0,13.4,1505.2,328.6,-0.8,1.8,2470.7,13.28,0.032,152.6
2021-09-09T09:31:03,42.805,6.029,-0.011,-0.023,-0.005,102.0,101.0,101.0,13.4,1505.2,327.4,-0.7,1.8,2470.714,13.28,0.025,205.6
2021-09-09T09:34:03,42.805,6.029,0.026,-0.023,0.013,102.0,102.0,101.0,13.3,1505.2,327.6,-0.7,1.8,2470.719,13.28,0.034,131.5
2021-09-09T09:37:03,42.805,6.029,0.014,-0.013,-0.002,102.0,101.0,100.0,13.3,1505.2,328.1,-0.7,1.8,2470.666,13.28,0.019,132.9
2021-09-09T09:40:03,42.805,6.029,-0.019,-0.011,-0.042,102.0,102.0,100.0,13.4,1505.2,327.9,-0.7,1.8,2470.713,13.28,0.021,239.9
2021-09-09T09:43:03,42.805,6.029,0.022,-0.015,-0.006,103.0,101.0,100.0,13.3,1505.2,329.3,-0.7,1.8,2470.716,13.28,0.026,124.3
2021-09-09T09:46:03,42.805,6.029,0.003,-0.043,-0.025,102.0,102.0,101.0,13.4,1505.2,325.7,-0.8,1.8,2470.72,13.28,0.043,176.0
2021-09-09T09:49:03,42.805,6.029,0.022,-0.007,0.032,106.0,103.0,100.0,13.4,1505.2,330.4,-0.7,1.8,2470.696,13.28,0.023,107.6